timestamp,wind_dir_avg,wind_spd_avg,wind_spd_max_dir,wind_spd_gust,battery_voltage,lat,long
2023-04-17 00:04:01+00:00,229.0,5.79,228.0,6.24,12.57,47.59359,-54.27349
2023-04-17 00:14:00+00:00,227.0,6.36,228.0,6.72,12.33,47.59359,-54.27349
2023-04-17 00:24:00+00:00,224.0,5.72,216.0,6.55,12.33,47.59359,-54.27349
2023-04-17 00:34:00+00:00,222.0,6.62,217.0,7.31,12.33,47.59359,-54.27349
2023-04-17 00:44:00+00:00,216.0,6.28,215.0,6.87,12.33,47.59359,-54.27349
2023-04-17 00:54:00+00:00,219.0,5.81,218.0,6.35,12.33,47.59359,-54.27349
2023-04-17 01:04:00+00:00,223.0,6.43,221.0,7.01,12.33,47.59359,-54.27349
2023-04-17 01:14:00+00:00,218.0,5.57,220.0,6.38,12.25,47.59359,-54.27349
2023-04-17 01:24:00+00:00,230.0,5.03,227.0,5.7,12.25,47.59359,-54.27349
2023-04-17 01:34:00+00:00,231.0,3.94,229.0,4.44,12.25,47.59359,-54.27349
2023-04-17 01:44:00+00:00,229.0,3.97,227.0,5.04,12.25,47.59359,-54.27349
2023-04-17 01:54:00+00:00,220.0,4.57,224.0,5.07,12.25,47.59359,-54.27349
2023-04-17 02:04:00+00:00,222.0,2.01,221.0,2.35,12.25,47.59359,-54.27349
2023-04-17 02:14:00+00:00,228.0,2.12,220.0,2.41,12.25,47.59359,-54.27349
2023-04-17 02:24:00+00:00,221.0,2.72,217.0,2.93,12.25,47.59359,-54.27349
2023-04-17 02:34:00+00:00,203.0,0.68,216.0,1.16,12.25,47.59359,-54.27349
2023-04-17 02:44:00+00:00,194.0,1.91,188.0,2.12,12.25,47.59359,-54.27349
2023-04-17 02:54:00+00:00,254.0,1.33,249.0,1.46,12.25,47.59359,-54.27349
2023-04-17 03:04:00+00:00,132.0,1.32,105.0,2.54,12.25,47.59359,-54.27349
2023-04-17 03:14:01+00:00,124.0,0.71,116.0,1.05,12.25,47.59359,-54.27349
2023-04-17 03:24:01+00:00,56.0,2.01,60.0,2.62,12.25,47.59359,-54.27349
2023-04-17 03:34:01+00:00,48.0,2.23,51.0,2.52,12.25,47.59359,-54.27349
2023-04-17 03:44:01+00:00,69.0,1.55,65.0,1.82,12.25,47.59359,-54.27349
2023-04-17 03:54:01+00:00,75.0,1.79,73.0,2.25,12.25,47.59359,-54.27349
2023-04-17 04:04:01+00:00,132.0,1.28,132.0,1.54,12.25,47.59359,-54.27349
2023-04-17 04:14:01+00:00,129.0,1.07,132.0,1.3,12.25,47.59359,-54.27349
2023-04-17 04:24:01+00:00,128.0,0.79,131.0,0.91,12.25,47.59359,-54.27349
2023-04-17 04:34:01+00:00,146.0,0.85,147.0,0.99,12.25,47.59359,-54.27349
2023-04-17 04:44:01+00:00,170.0,0.73,164.0,0.79,12.25,47.59359,-54.27349
2023-04-17 04:54:01+00:00,142.0,1.52,142.0,1.6,12.25,47.59359,-54.27349
2023-04-17 05:04:01+00:00,167.0,1.54,163.0,1.7,12.25,47.59359,-54.27349
2023-04-17 05:14:00+00:00,159.0,2.74,157.0,2.91,12.17,47.59359,-54.27349
2023-04-17 05:24:00+00:00,185.0,2.63,183.0,2.84,12.17,47.59359,-54.27349
2023-04-17 05:34:00+00:00,160.0,1.09,162.0,1.26,12.17,47.59359,-54.27349
2023-04-17 05:44:00+00:00,183.0,1.65,190.0,1.87,12.17,47.59359,-54.27349
2023-04-17 05:54:00+00:00,195.0,1.18,200.0,1.29,12.17,47.59359,-54.27349
2023-04-17 06:04:00+00:00,207.0,0.97,218.0,1.15,12.17,47.59359,-54.27349
2023-04-17 06:14:00+00:00,199.0,1.75,199.0,1.83,12.17,47.59359,-54.27349
2023-04-17 06:24:00+00:00,221.0,1.43,220.0,1.62,12.17,47.59359,-54.27349
2023-04-17 06:34:00+00:00,210.0,0.99,210.0,1.08,12.17,47.59359,-54.27349
2023-04-17 06:44:00+00:00,192.0,1.41,194.0,1.62,12.17,47.59359,-54.27349
2023-04-17 06:54:00+00:00,202.0,2.28,211.0,2.67,12.17,47.59359,-54.27349
2023-04-17 07:04:00+00:00,222.0,2.11,226.0,2.47,12.17,47.59359,-54.27349
2023-04-17 07:14:01+00:00,188.0,3.22,167.0,3.67,12.09,47.59359,-54.27349
2023-04-17 07:24:01+00:00,207.0,2.36,223.0,2.93,12.09,47.59359,-54.27349
2023-04-17 07:34:01+00:00,263.0,2.32,262.0,2.61,12.09,47.59359,-54.27349
2023-04-17 07:44:01+00:00,233.0,0.92,235.0,1.13,12.09,47.59359,-54.27349
2023-04-17 07:54:01+00:00,326.0,0.9,336.0,1.07,12.09,47.59359,-54.27349
2023-04-17 08:04:01+00:00,338.0,0.75,339.0,0.9,12.09,47.59359,-54.27349
2023-04-17 08:14:01+00:00,0.0,0.42,4.0,0.59,12.09,47.59359,-54.27349
2023-04-17 08:24:01+00:00,320.0,0.66,323.0,0.76,12.09,47.59359,-54.27349
2023-04-17 08:34:01+00:00,349.0,0.97,354.0,1.15,12.09,47.59359,-54.27349
2023-04-17 08:44:01+00:00,6.0,1.29,10.0,1.44,12.09,47.59359,-54.27349
2023-04-17 08:54:01+00:00,40.0,3.46,41.0,3.74,12.09,47.59359,-54.27349
2023-04-17 09:04:01+00:00,46.0,3.84,47.0,4.11,12.09,47.59359,-54.27349
2023-04-17 09:14:01+00:00,44.0,3.96,43.0,4.33,12.09,47.59359,-54.27349
2023-04-17 09:24:01+00:00,45.0,4.21,46.0,4.4,12.09,47.59359,-54.27349
2023-04-17 09:34:01+00:00,52.0,3.91,51.0,4.22,12.09,47.59359,-54.27349
2023-04-17 09:44:01+00:00,46.0,4.53,49.0,4.7,12.09,47.59359,-54.27349
2023-04-17 09:54:01+00:00,38.0,4.72,38.0,5.0,12.09,47.59359,-54.27349
2023-04-17 10:04:01+00:00,38.0,4.53,38.0,4.91,12.09,47.59359,-54.27349
2023-04-17 10:14:01+00:00,38.0,4.49,38.0,4.81,12.09,47.59359,-54.27349
2023-04-17 10:24:01+00:00,39.0,4.27,39.0,4.62,12.09,47.59359,-54.27349
2023-04-17 10:34:01+00:00,33.0,3.97,37.0,4.39,12.09,47.59359,-54.27349
2023-04-17 10:44:01+00:00,43.0,4.27,43.0,4.64,12.09,47.59359,-54.27349
2023-04-17 10:54:01+00:00,43.0,4.95,45.0,5.58,12.09,47.59359,-54.27349
2023-04-17 11:04:01+00:00,36.0,6.02,38.0,6.29,12.09,47.59359,-54.27349
2023-04-17 11:14:01+00:00,41.0,6.24,52.0,7.31,12.25,47.59359,-54.27349
2023-04-17 11:24:01+00:00,40.0,5.99,39.0,6.38,12.25,47.59359,-54.27349
2023-04-17 11:34:01+00:00,48.0,5.98,61.0,8.13,12.25,47.59359,-54.27349
2023-04-17 11:44:01+00:00,35.0,6.35,37.0,6.74,12.25,47.59359,-54.27349
2023-04-17 11:54:01+00:00,34.0,6.71,35.0,7.11,12.25,47.59359,-54.27349
2023-04-17 12:04:01+00:00,36.0,6.34,51.0,8.1,12.25,47.59359,-54.27349
2023-04-17 12:14:00+00:00,37.0,6.76,44.0,7.52,12.73,47.59359,-54.27349
2023-04-17 12:24:00+00:00,37.0,5.99,37.0,6.87,12.73,47.59359,-54.27349
2023-04-17 12:34:00+00:00,37.0,6.07,29.0,7.14,12.73,47.59359,-54.27349
2023-04-17 12:44:00+00:00,44.0,5.13,42.0,5.57,12.73,47.59359,-54.27349
2023-04-17 12:54:00+00:00,45.0,4.87,47.0,5.12,12.73,47.59359,-54.27349
2023-04-17 13:04:00+00:00,51.0,3.75,44.0,4.37,12.73,47.59359,-54.27349
2023-04-17 13:14:00+00:00,50.0,4.26,49.0,4.77,13.68,47.59359,-54.27349
2023-04-17 13:24:00+00:00,50.0,3.88,48.0,4.33,13.68,47.59359,-54.27349
2023-04-17 13:34:00+00:00,52.0,4.01,49.0,4.38,13.68,47.59359,-54.27349
2023-04-17 13:44:00+00:00,48.0,4.15,47.0,4.47,13.68,47.59359,-54.27349
2023-04-17 13:54:00+00:00,42.0,4.77,42.0,4.97,13.68,47.59359,-54.27349
2023-04-17 14:04:00+00:00,42.0,4.49,39.0,4.79,13.68,47.59359,-54.27349
2023-04-17 14:14:00+00:00,40.0,4.54,42.0,4.98,13.53,47.59359,-54.27349
2023-04-17 14:24:00+00:00,39.0,4.5,40.0,4.77,13.53,47.59359,-54.27349
2023-04-17 14:34:00+00:00,48.0,3.95,52.0,4.2,13.53,47.59359,-54.27349
2023-04-17 14:44:00+00:00,48.0,4.06,48.0,4.49,13.53,47.59359,-54.27349
2023-04-17 14:54:00+00:00,47.0,4.03,41.0,4.46,13.53,47.59359,-54.27349
2023-04-17 15:04:00+00:00,44.0,4.32,49.0,4.75,13.53,47.59359,-54.27349
2023-04-17 15:14:00+00:00,45.0,4.46,46.0,4.92,13.68,47.59359,-54.27349
2023-04-17 15:24:00+00:00,50.0,3.86,50.0,4.25,13.68,47.59359,-54.27349
2023-04-17 15:34:00+00:00,46.0,3.81,48.0,4.09,13.68,47.59359,-54.27349
2023-04-17 15:44:00+00:00,43.0,3.77,43.0,4.08,13.68,47.59359,-54.27349
2023-04-17 15:54:00+00:00,46.0,2.69,44.0,3.31,13.68,47.59359,-54.27349
2023-04-17 16:04:00+00:00,43.0,3.08,41.0,3.49,13.68,47.59359,-54.27349
2023-04-17 16:14:00+00:00,40.0,3.23,41.0,3.47,14.4,47.59359,-54.27349
2023-04-17 16:24:00+00:00,42.0,2.83,38.0,3.38,14.4,47.59359,-54.27349
2023-04-17 16:34:00+00:00,43.0,2.56,44.0,3.08,14.4,47.59359,-54.27349
2023-04-17 16:44:00+00:00,38.0,3.41,42.0,3.78,14.4,47.59359,-54.27349
2023-04-17 16:54:00+00:00,36.0,4.0,37.0,4.44,14.4,47.59359,-54.27349
2023-04-17 17:04:00+00:00,37.0,4.53,37.0,5.03,14.4,47.59359,-54.27349
2023-04-17 17:14:00+00:00,37.0,4.73,36.0,5.1,13.6,47.59359,-54.27349
2023-04-17 17:24:00+00:00,38.0,4.62,37.0,4.87,13.6,47.59359,-54.27349
2023-04-17 17:34:00+00:00,43.0,4.5,43.0,4.78,13.6,47.59359,-54.27349
2023-04-17 17:44:00+00:00,39.0,3.86,39.0,4.11,13.6,47.59359,-54.27349
2023-04-17 17:54:00+00:00,41.0,4.43,40.0,4.77,13.6,47.59359,-54.27349
2023-04-17 18:04:00+00:00,38.0,3.7,36.0,4.12,13.6,47.59359,-54.27349
2023-04-17 18:14:00+00:00,97.0,2.77,84.0,4.31,13.6,47.59359,-54.27349
2023-04-17 18:24:00+00:00,99.0,2.57,123.0,3.85,13.6,47.59359,-54.27349
2023-04-17 18:34:00+00:00,70.0,3.71,66.0,4.78,13.6,47.59359,-54.27349
2023-04-17 18:44:00+00:00,96.0,3.21,132.0,4.62,13.6,47.59359,-54.27349
2023-04-17 18:54:00+00:00,71.0,5.12,82.0,9.04,13.6,47.59359,-54.27349
2023-04-17 19:04:00+00:00,69.0,5.39,78.0,9.07,13.6,47.59359,-54.27349
2023-04-17 19:14:00+00:00,63.0,3.45,72.0,4.37,13.68,47.59359,-54.27349
2023-04-17 19:24:00+00:00,69.0,3.89,70.0,5.24,13.68,47.59359,-54.27349
2023-04-17 19:34:00+00:00,76.0,3.83,81.0,9.6,13.68,47.59359,-54.27349
2023-04-17 19:44:00+00:00,59.0,4.84,59.0,5.08,13.68,47.59359,-54.27349
2023-04-17 19:54:00+00:00,67.0,3.99,69.0,4.76,13.68,47.59359,-54.27349
2023-04-17 20:04:00+00:00,64.0,3.86,76.0,4.5,13.68,47.59359,-54.27349
2023-04-17 20:14:00+00:00,69.0,4.45,74.0,4.95,13.68,47.59359,-54.27349
2023-04-17 20:24:00+00:00,71.0,5.23,71.0,5.95,13.68,47.59359,-54.27349
2023-04-17 20:34:00+00:00,69.0,3.49,59.0,4.85,13.68,47.59359,-54.27349
2023-04-17 20:44:00+00:00,82.0,3.27,88.0,5.74,13.68,47.59359,-54.27349
2023-04-17 20:54:00+00:00,79.0,3.27,102.0,4.35,13.68,47.59359,-54.27349
2023-04-17 21:04:00+00:00,73.0,3.21,64.0,4.58,13.68,47.59359,-54.27349
2023-04-17 21:14:00+00:00,85.0,2.61,102.0,3.76,13.53,47.59359,-54.27349
2023-04-17 21:24:00+00:00,88.0,3.31,86.0,4.57,13.53,47.59359,-54.27349
2023-04-17 21:34:00+00:00,98.0,2.74,118.0,4.47,13.53,47.59359,-54.27349
2023-04-17 21:44:00+00:00,77.0,3.07,95.0,4.12,13.53,47.59359,-54.27349
2023-04-17 21:54:00+00:00,78.0,2.74,97.0,3.81,13.53,47.59359,-54.27349
2023-04-17 22:04:00+00:00,71.0,3.0,90.0,4.51,13.53,47.59359,-54.27349
2023-04-17 22:14:00+00:00,83.0,3.14,90.0,4.14,13.21,47.59359,-54.27349
2023-04-17 22:24:00+00:00,72.0,3.7,69.0,4.45,13.21,47.59359,-54.27349
2023-04-17 22:34:00+00:00,64.0,3.79,64.0,4.29,13.21,47.59359,-54.27349
2023-04-17 22:44:00+00:00,65.0,4.04,62.0,4.33,13.21,47.59359,-54.27349
2023-04-17 22:54:00+00:00,69.0,4.03,67.0,4.6,13.21,47.59359,-54.27349
2023-04-17 23:04:00+00:00,70.0,3.96,71.0,4.45,13.21,47.59359,-54.27349
2023-04-17 23:14:01+00:00,72.0,4.02,75.0,4.59,12.65,47.59359,-54.27349
2023-04-17 23:24:01+00:00,73.0,4.09,68.0,4.98,12.65,47.59359,-54.27349
2023-04-17 23:34:01+00:00,74.0,3.34,75.0,4.25,12.65,47.59359,-54.27349
2023-04-17 23:44:01+00:00,73.0,3.88,74.0,4.65,12.65,47.59359,-54.27349
2023-04-17 23:54:01+00:00,83.0,2.9,76.0,3.76,12.65,47.59359,-54.27349
